Valparaiso, IN

9:05 PM CST on February 19, 2017 (GMT -0600)
Porter County Municipal

Weather History for KVPZ - April, 2013

Change the Weather History Date:

Wednesday, April 17, 2013

  Actual Average Record
Temperature  
Mean Temperature 49 °F 50 °F  
Max Temperature 55 °F 60 °F 85 °F (2002)
Min Temperature 43 °F 39 °F 28 °F (2001)
Degree Days  
Heating Degree Days 16 15  
Month to date heating degree days 323 312  
Since 1 July heating degree days 5692 5889  
Cooling Degree Days 0 0  
Month to date cooling degree days 0 0  
Year to date cooling degree days 0 0  
Moisture  
Dew Point 44 °F    
Average Humidity 84    
Maximum Humidity 100    
Minimum Humidity 68    
Precipitation  
Precipitation 0.74 in 0.13 in 0.74 in (2013)
Month to date precipitation 4.29 1.89  
Year to date precipitation 8.38 7.54  
Sea Level Pressure  
Sea Level Pressure 30.07 in    
Wind  
Wind Speed 13 mph (ENE)    
Max Wind Speed 24 mph    
Max Gust Speed 30 mph    
Visibility 8 miles    
Events Rain    
T = Trace of Precipitation, MM = Missing Value Source: NWS Daily Summary

Daily Weather History Graph

Daily Weather History Graph

Search for Another Location

Airport or City:

Trip Planner

Search our weather history database for the weather conditions in past years. The results will help you decide how hot, cold, wet, or windy it might be!

Date:

Astronomy

Apr. 17, 2013 Rise Set
Actual Time 6:04 AM CDT 7:30 PM CDT
Civil Twilight 5:35 AM CDT 7:59 PM CDT
Nautical Twilight 5:01 AM CDT 8:34 PM CDT
Astronomical Twilight 4:24 AM CDT 9:11 PM CDT
Moon 11:16 AM CDT (4/17) 1:09 AM CDT (4/17)
Length of Visible Light 14h 23m
Length of Day
13h 26m
Waxing Crescent, 42% of the Moon is Illuminated
Apr 17
Waxing Crescent
Apr 18
First Quarter
Apr 25
Full
May 2
Last Quarter
May 9
New

Hourly Weather History & Observations

Time (CDT) Temp. Windchill Dew Point Humidity Pressure Visibility Wind Dir Wind Speed Gust Speed Precip Events Conditions
12:53 AM 44.1 °F 39.5 °F 34.0 °F 68% 30.27 in 10.0 mi NNE 8.1 mph - N/A   Overcast
1:53 AM 44.1 °F 40.1 °F 35.1 °F 71% 30.26 in 10.0 mi NNE 6.9 mph - N/A   Overcast
2:53 AM 44.1 °F 40.1 °F 35.1 °F 71% 30.27 in 10.0 mi NNE 6.9 mph - N/A   Overcast
3:53 AM 43.0 °F 39.5 °F 36.0 °F 76% 30.26 in 10.0 mi NNE 5.8 mph - N/A   Mostly Cloudy
4:53 AM 44.1 °F 40.1 °F 36.0 °F 73% 30.26 in 10.0 mi NE 6.9 mph - N/A   Overcast
5:53 AM 43.0 °F 37.7 °F 36.0 °F 76% 30.24 in 10.0 mi ENE 9.2 mph - N/A   Mostly Cloudy
6:53 AM 45.0 °F 38.9 °F 37.0 °F 74% 30.22 in 10.0 mi East 12.7 mph - N/A   Overcast
7:53 AM 46.9 °F - 37.9 °F 71% 30.22 in 10.0 mi East 12.7 mph - N/A   Mostly Cloudy
9:44 AM 46.4 °F 41.1 °F 42.8 °F 87% 30.19 in 1.8 mi ENE 11.5 mph - 0.18 in Rain Heavy Rain
9:53 AM 48.0 °F - 43.0 °F 83% 30.20 in 5.0 mi ENE 11.5 mph - 0.18 in Rain Light Rain
10:53 AM 50.0 °F - 44.1 °F 80% 30.20 in 10.0 mi ENE 9.2 mph - 0.00 in   Overcast
11:05 AM 50.0 °F - 44.6 °F 82% 30.18 in 10.0 mi ENE 10.4 mph - N/A   Overcast
11:53 AM 51.1 °F - 44.1 °F 77% 30.15 in 10.0 mi East 16.1 mph 24.2 mph 0.01 in   Overcast
12:53 PM 53.1 °F - 45.0 °F 74% 30.11 in 10.0 mi East 20.7 mph 26.5 mph N/A   Overcast
1:53 PM 52.0 °F - 46.9 °F 83% 30.07 in 8.0 mi ESE 17.3 mph 25.3 mph 0.00 in   Overcast
2:53 PM 53.1 °F - 48.0 °F 83% 30.05 in 9.0 mi ESE 10.4 mph - N/A   Overcast
3:53 PM 54.0 °F - 48.0 °F 80% 29.99 in 10.0 mi ESE 16.1 mph - N/A   Overcast
4:53 PM 54.0 °F - 48.0 °F 80% 30.02 in 9.0 mi NW 20.7 mph 29.9 mph N/A   Overcast
5:01 PM 51.8 °F - 46.4 °F 82% 30.01 in 8.0 mi NNW 11.5 mph 29.9 mph N/A   Unknown
5:17 PM 50.0 °F - 48.2 °F 94% 29.99 in 2.0 mi NE 9.2 mph 17.3 mph N/A Rain Light Rain
5:26 PM 51.8 °F - 48.2 °F 88% 29.99 in - North - - N/A   Unknown
5:53 PM - - - N/A% 30.05 in - North - - N/A   Unknown
6:53 PM 46.9 °F - 44.1 °F 90% 30.03 in 9.0 mi ENE 13.8 mph 26.5 mph N/A   Overcast
6:58 PM 46.4 °F 39.2 °F 44.6 °F 93% 29.99 in 2.0 mi East 18.4 mph 21.9 mph 0.12 in Rain Heavy Rain
7:00 PM 46.4 °F 38.7 °F 44.6 °F 93% 29.98 in 1.8 mi East 20.7 mph 25.3 mph 0.14 in Rain Heavy Rain
7:12 PM 46.4 °F 39.2 °F 46.4 °F 100% 29.96 in 3.0 mi East 18.4 mph 26.5 mph 0.17 in Rain Light Rain
7:53 PM 48.0 °F - 46.0 °F 93% 29.95 in 10.0 mi East 12.7 mph 21.9 mph 0.18 in   Overcast
8:53 PM 48.0 °F - 46.0 °F 93% 29.93 in 10.0 mi East 16.1 mph - N/A   Overcast
9:53 PM 48.0 °F - 46.9 °F 96% 29.91 in 8.0 mi ENE 10.4 mph - 0.09 in   Overcast
10:10 PM 48.2 °F - 46.4 °F 93% 29.90 in 7.0 mi East 10.4 mph - 0.00 in Rain Light Rain
10:53 PM 50.0 °F - 48.0 °F 93% 29.86 in 6.0 mi East 16.1 mph - 0.01 in   Overcast
11:12 PM 50.0 °F - 48.2 °F 94% 29.86 in 6.0 mi ESE 9.2 mph 19.6 mph N/A   Overcast
11:53 PM 51.1 °F - 50.0 °F 96% 29.83 in 6.0 mi East 11.5 mph - N/A   Overcast